Location: *
(33.8649°S, 62.1526°E)
Time: 10:02:13
(UTC+00:00)

Cosmos 44 Rocket - Pass Details

Date: 07 December 2021
Orbit: 648 x 741 km, 65.1° (Epoch: 23 January)

Event Time Altitude Azimuth Distance (km) Brightness Sun altitude
Exits shadow 16:19:11 23° 23° (NNE) 1,371 4.3 -15.5°
Maximum altitude 16:21:13 34° 68° (ENE) 1,076 3.8 -15.8°
Drops below altitude 10° 16:25:28 10° 132° (SE) 2,084 5.7 -16.5°
Sets 16:27:57 0° 141° (SE) 3,012 6.6 -16.9°
